Preview of NWS' New Version of Forecast
This preview is not operational and should not be used for support decisions.

Regional Weather Roundup (RWR)

Issued by National Weather Service (NWS)

                            
000
ASUS43 KTOP 242259
RWRKS 

WEATHER ROUNDUP FOR KANSAS
NATIONAL WEATHER SERVICE GOODLAND KS
600 PM CDT SAT AUG 24 2019

NOTE:  "FAIR" INDICATES FEW OR NO CLOUDS BELOW 12,000 FEET WITH NO
SIGNIFICANT WEATHER AND/OR OBSTRUCTIONS TO VISIBILITY.

KSZ001>006-013>018-027>032-041>047-250000-
NORTHWEST KANSAS
  
CITY           SKY/WX    TMP DP  RH WIND       PRES   REMARKS
GOODLAND       MOSUNNY   76  65  68 SE10      29.97F                  
HAYS           CLOUDY    77  68  73 SE14      29.79F                  
HILL CITY      CLOUDY    75  68  78 SE8       29.94F                  
RUSSELL        PTSUNNY   79  68  69 SE17      29.93F                  
$$

KSZ061>065-074>080-084>089-250000-
SOUTHWEST KANSAS
  
CITY           SKY/WX    TMP DP  RH WIND       PRES   REMARKS
DODGE CITY     MOSUNNY   84  64  50 S17G23    29.94S                  
GARDEN CITY    MOSUNNY   82  63  52 SE14      29.93S                  
GREAT BEND     CLOUDY    80  70  71 E12       29.95S                  
LIBERAL        CLOUDY    84  65  52 S13       29.94R                  
$$

KSZ066>073-081>083-090>101-250000-
SOUTHEAST KANSAS
  
CITY           SKY/WX    TMP DP  RH WIND       PRES   REMARKS
CHANUTE        CLOUDY    76  68  76 E10G21    29.99R                  
COFFEYVILLE    PTSUNNY   81  73  76 E12       29.94R                  
HUTCHINSON     PTSUNNY   81  69  67 E8        29.94F                  
MEDICINE LODGE   N/A     85  69  58 SE12G18   29.90S                  
NEWTON         PTSUNNY   78  70  76 E9        29.97S                  
PARSONS        MOSUNNY   79  72  79 VRB7      29.98R                  
WICHITA INTL   MOSUNNY   82  70  66 SE12      29.93S                  
WICHITA JABRA  PTSUNNY   82  71  69 SE10      29.94F                  
WICHITA MCCONL SUNNY     83  68  59 E12       29.95S                  
WINFIELD       PTSUNNY   83  70  64 SE9       29.94S                  
$$

KSZ007>012-019>026-033>040-048>060-102>105-250000-
NORTHEAST KANSAS
  
CITY           SKY/WX    TMP DP  RH WIND       PRES   REMARKS
CONCORDIA      MOSUNNY   73  68  84 E13       29.99R                  
LAWRENCE       CLOUDY    74  62  66 E13G21    30.03R                  
MANHATTAN      CLOUDY    74  67  78 E10       30.00S                  
OLATHE IND     CLOUDY    72  61  68 E16G23    30.05R                  
OLATHE EXE     CLOUDY    71  61  70 SE10G18   30.04S                  
SALINA         CLOUDY    79  68  69 E13       29.96F                  
TOPEKA BILLARD CLOUDY    73  65  75 E10       30.02S                  
TOPEKA FORBES  CLOUDY    73  66  78 E8        30.02S                  
$$